TimeCST,TemperatureF,Dew PointF,Humidity,Sea Level PressureIn,VisibilityMPH,Wind Direction,Wind SpeedMPH,Gust SpeedMPH,PrecipitationIn,Events,Conditions,WindDirDegrees,DateUTC
12:15 AM,21.0,19.4,93,29.93,7.0,Calm,Calm,-,N/A,,Clear,0,2012-12-23 06:15:00
12:35 AM,21.2,19.6,93,29.93,5.0,Calm,Calm,-,N/A,,Clear,0,2012-12-23 06:35:00
12:55 AM,21.0,19.4,93,29.92,7.0,Calm,Calm,-,N/A,,Clear,0,2012-12-23 06:55:00
1:15 AM,20.5,18.9,93,29.92,7.0,Calm,Calm,-,N/A,,Clear,0,2012-12-23 07:15:00
1:35 AM,20.3,18.9,94,29.91,5.0,Calm,Calm,-,N/A,,Clear,0,2012-12-23 07:35:00
1:55 AM,19.8,18.3,94,29.91,5.0,Calm,Calm,-,N/A,,Clear,0,2012-12-23 07:55:00
2:15 AM,19.2,17.8,94,29.92,7.0,Calm,Calm,-,N/A,,Clear,0,2012-12-23 08:15:00
2:35 AM,20.1,18.5,93,29.91,7.0,Calm,Calm,-,N/A,,Clear,0,2012-12-23 08:35:00
2:55 AM,19.8,18.3,94,29.92,7.0,North,5.8,-,N/A,,Clear,10,2012-12-23 08:55:00
3:15 AM,19.4,18.0,94,29.92,5.0,North,3.5,-,N/A,,Clear,10,2012-12-23 09:15:00
3:35 AM,18.3,16.7,93,29.92,5.0,Calm,Calm,-,N/A,,Clear,0,2012-12-23 09:35:00
3:55 AM,18.1,16.7,94,29.92,5.0,Calm,Calm,-,N/A,,Clear,0,2012-12-23 09:55:00
4:15 AM,18.0,16.5,94,29.92,5.0,Calm,Calm,-,N/A,,Clear,0,2012-12-23 10:15:00
4:35 AM,17.6,15.8,93,29.93,5.0,Calm,Calm,-,N/A,,Clear,0,2012-12-23 10:35:00
4:55 AM,16.5,14.9,93,29.93,5.0,Calm,Calm,-,N/A,,Clear,0,2012-12-23 10:55:00
5:15 AM,18.1,16.7,94,29.93,7.0,Calm,Calm,-,N/A,,Clear,0,2012-12-23 11:15:00
5:35 AM,18.1,16.5,93,29.93,5.0,Calm,Calm,-,N/A,,Clear,0,2012-12-23 11:35:00
5:55 AM,16.7,15.1,93,29.94,7.0,Calm,Calm,-,N/A,,Clear,0,2012-12-23 11:55:00
6:15 AM,17.1,15.4,93,29.94,7.0,Calm,Calm,-,N/A,,Clear,0,2012-12-23 12:15:00
6:35 AM,19.4,17.6,93,29.94,7.0,Calm,Calm,-,N/A,,Clear,0,2012-12-23 12:35:00
6:55 AM,20.7,19.0,93,29.94,7.0,North,5.8,-,N/A,,Clear,360,2012-12-23 12:55:00
7:15 AM,20.3,18.1,91,29.96,7.0,North,6.9,-,N/A,,Clear,360,2012-12-23 13:15:00
7:35 AM,21.2,17.6,86,29.97,7.0,NNE,5.8,-,N/A,,Clear,20,2012-12-23 13:35:00
7:55 AM,20.8,17.8,88,29.98,7.0,NNE,8.1,-,N/A,,Clear,20,2012-12-23 13:55:00
8:15 AM,21.7,18.0,85,29.98,10.0,NNE,9.2,-,N/A,,Clear,20,2012-12-23 14:15:00
8:35 AM,22.8,18.3,83,29.99,10.0,North,11.5,-,N/A,,Clear,10,2012-12-23 14:35:00
8:55 AM,23.2,18.3,82,30.00,10.0,NNE,9.2,-,N/A,,Clear,20,2012-12-23 14:55:00
9:15 AM,24.8,18.7,78,30.01,10.0,NNE,6.9,-,N/A,,Clear,30,2012-12-23 15:15:00
9:35 AM,26.2,19.2,75,30.01,10.0,NNE,5.8,-,N/A,,Clear,20,2012-12-23 15:35:00
9:55 AM,27.3,19.6,73,30.03,10.0,NNE,9.2,-,N/A,,Clear,20,2012-12-23 15:55:00
10:15 AM,27.9,21.0,75,30.03,10.0,NNE,10.4,-,N/A,,Clear,20,2012-12-23 16:15:00
10:35 AM,27.5,20.1,74,30.03,10.0,NNE,10.4,-,N/A,,Clear,20,2012-12-23 16:35:00
10:55 AM,27.5,20.3,74,30.02,10.0,NNE,6.9,-,N/A,,Clear,30,2012-12-23 16:55:00
11:15 AM,27.9,21.2,76,30.00,10.0,NE,9.2,-,N/A,,Clear,50,2012-12-23 17:15:00
11:35 AM,28.9,22.1,76,30.00,10.0,ENE,9.2,-,N/A,,Clear,60,2012-12-23 17:35:00
11:55 AM,29.8,23.9,79,29.99,10.0,NE,11.5,-,N/A,,Clear,40,2012-12-23 17:55:00
12:15 PM,30.9,25.3,80,29.98,10.0,NE,11.5,-,N/A,,Clear,50,2012-12-23 18:15:00
12:35 PM,31.3,26.1,81,29.99,10.0,NE,9.2,-,N/A,,Clear,50,2012-12-23 18:35:00
12:55 PM,31.1,26.6,83,29.98,7.0,NE,9.2,-,N/A,,Clear,40,2012-12-23 18:55:00
1:15 PM,31.1,27.3,86,29.98,7.0,NNE,9.2,-,N/A,,Scattered Clouds,30,2012-12-23 19:15:00
1:35 PM,31.8,27.7,85,29.98,7.0,NNE,6.9,-,N/A,,Scattered Clouds,30,2012-12-23 19:35:00
1:55 PM,31.6,28.2,87,29.98,5.0,NNE,8.1,-,N/A,,Mostly Cloudy,20,2012-12-23 19:55:00
2:15 PM,31.1,28.0,88,29.98,7.0,NNE,8.1,-,N/A,,Mostly Cloudy,20,2012-12-23 20:15:00
2:35 PM,32.0,28.6,87,29.97,7.0,NE,6.9,-,N/A,,Mostly Cloudy,40,2012-12-23 20:35:00
2:55 PM,32.0,28.4,87,29.98,7.0,NE,8.1,-,N/A,,Overcast,40,2012-12-23 20:55:00
3:15 PM,32.0,28.9,88,29.98,7.0,NNE,9.2,-,N/A,,Overcast,30,2012-12-23 21:15:00
3:35 PM,32.2,29.1,88,29.98,7.0,NNE,9.2,-,N/A,,Overcast,30,2012-12-23 21:35:00
3:55 PM,32.2,29.3,89,29.98,7.0,NE,12.7,-,N/A,,Overcast,40,2012-12-23 21:55:00
4:15 PM,32.0,29.3,90,29.98,7.0,NE,10.4,-,N/A,,Overcast,50,2012-12-23 22:15:00
4:35 PM,32.0,29.3,90,29.99,10.0,NE,6.9,-,N/A,,Overcast,40,2012-12-23 22:35:00
4:55 PM,32.0,29.1,89,29.98,7.0,NNE,10.4,-,N/A,,Overcast,30,2012-12-23 22:55:00
5:15 PM,31.6,28.8,89,29.99,7.0,NNE,10.4,-,N/A,,Overcast,30,2012-12-23 23:15:00
5:35 PM,31.6,28.9,90,29.99,7.0,NE,9.2,-,N/A,,Overcast,40,2012-12-23 23:35:00
5:55 PM,31.6,28.9,90,29.99,7.0,NE,10.4,-,N/A,,Overcast,40,2012-12-23 23:55:00
6:15 PM,31.5,28.8,90,29.99,7.0,NNE,9.2,-,N/A,,Overcast,30,2012-12-24 00:15:00
6:35 PM,30.7,28.2,90,29.98,7.0,NE,11.5,-,N/A,,Overcast,40,2012-12-24 00:35:00
6:55 PM,30.0,27.5,90,29.99,7.0,NE,9.2,-,N/A,,Scattered Clouds,40,2012-12-24 00:55:00
7:15 PM,29.7,27.3,91,29.99,7.0,NE,8.1,-,N/A,,Clear,40,2012-12-24 01:15:00
7:35 PM,29.3,27.0,91,29.98,7.0,ENE,5.8,-,N/A,,Clear,60,2012-12-24 01:35:00
7:55 PM,28.9,26.6,91,29.97,7.0,NE,6.9,-,N/A,,Clear,50,2012-12-24 01:55:00
8:15 PM,29.3,26.6,90,29.97,10.0,NE,9.2,-,N/A,,Clear,50,2012-12-24 02:15:00
8:35 PM,28.9,26.4,90,29.97,7.0,NE,10.4,-,N/A,,Clear,50,2012-12-24 02:35:00
8:55 PM,28.8,26.2,90,29.97,7.0,NE,9.2,-,N/A,,Clear,40,2012-12-24 02:55:00
9:15 PM,28.4,26.1,91,29.98,7.0,NE,9.2,-,N/A,,Clear,50,2012-12-24 03:15:00
9:35 PM,28.2,25.7,90,29.97,7.0,NE,9.2,-,N/A,,Clear,50,2012-12-24 03:35:00
9:55 PM,27.5,25.3,92,29.98,7.0,NE,8.1,-,N/A,,Clear,40,2012-12-24 03:55:00
10:15 PM,27.5,25.2,91,29.98,7.0,NE,6.9,-,N/A,,Scattered Clouds,50,2012-12-24 04:15:00
10:35 PM,27.5,25.3,92,29.98,7.0,NE,6.9,-,N/A,,Mostly Cloudy,50,2012-12-24 04:35:00
10:55 PM,28.0,25.7,91,29.97,7.0,NE,9.2,-,N/A,,Overcast,50,2012-12-24 04:55:00
11:15 PM,28.0,25.7,91,29.97,7.0,NE,6.9,-,N/A,,Overcast,50,2012-12-24 05:15:00
11:35 PM,28.4,26.1,91,29.95,7.0,ENE,5.8,-,N/A,,Overcast,60,2012-12-24 05:35:00
11:55 PM,28.4,26.1,91,29.95,7.0,ENE,6.9,-,N/A,,Overcast,60,2012-12-24 05:55:00